Hallock, MN

6:55 PM CDT on July 21, 2017 (GMT -0500)
Hallock Municipal

Weather History for KHCO - February, 2013

Change the Weather History Date:

Friday, February 15, 2013

  Actual Average Record
Temperature  
Mean Temperature 2 °F -  
Max Temperature 14 °F 15 °F 41 °F (1981)
Min Temperature -11 °F -6 °F -45 °F (1936)
Degree Days  
Heating Degree Days 64    
Moisture  
Dew Point -3 °F    
Average Humidity 85    
Maximum Humidity 92    
Minimum Humidity 77    
Precipitation  
Precipitation 0.00 in - - ()
Sea Level Pressure  
Sea Level Pressure 30.28 in    
Wind  
Wind Speed 3 mph (West)    
Max Wind Speed 14 mph    
Max Gust Speed -    
Visibility 9 miles    
Events Snow    
Averages and records for this station are not official NWS values.
T = Trace of Precipitation, MM = Missing Value Source: NWS Daily Summary

Daily Weather History Graph

Daily Weather History Graph

Search for Another Location

Airport or City:

Trip Planner

Search our weather history database for the weather conditions in past years. The results will help you decide how hot, cold, wet, or windy it might be!

Date:

Astronomy

Feb. 15, 2013 Rise Set
Actual Time 7:35 AM CST 5:49 PM CST
Civil Twilight 7:02 AM CST 6:21 PM CST
Nautical Twilight 6:25 AM CST 6:58 PM CST
Astronomical Twilight 5:49 AM CST 7:35 PM CST
Moon 9:39 AM CST (2/15) No Moon Set
Length of Visible Light 11h 19m
Length of Day
10h 14m
Waxing Crescent, 30% of the Moon is Illuminated
Feb 15
Waxing Crescent
Feb 17
First Quarter
Feb 25
Full
Mar 4
Last Quarter
Mar 11
New

Hourly Weather History & Observations

Time (CST) Temp. Windchill Dew Point Humidity Pressure Visibility Wind Dir Wind Speed Gust Speed Precip Events Conditions
12:14 AM -0.4 °F - -2.2 °F 92% 30.25 in 10.0 mi Calm Calm - N/A   Clear
12:33 AM 1.4 °F -8.3 °F -0.4 °F 92% 30.25 in 10.0 mi NNW 4.6 mph - N/A   Clear
12:54 AM 1.4 °F -8.3 °F -2.2 °F 85% 30.26 in 10.0 mi NW 4.6 mph - N/A   Clear
1:14 AM -0.4 °F -12.0 °F -2.2 °F 92% 30.26 in 10.0 mi NNW 5.8 mph - N/A   Clear
1:33 AM -2.2 °F -10.4 °F -5.8 °F 85% 30.27 in 10.0 mi NNW 3.5 mph - N/A   Clear
1:54 AM -0.4 °F -10.4 °F -4.0 °F 85% 30.27 in 10.0 mi NNW 4.6 mph - N/A   Clear
2:33 AM -2.2 °F -12.5 °F -5.8 °F 85% 30.28 in 10.0 mi NNW 4.6 mph - N/A   Clear
2:54 AM -2.2 °F -12.5 °F -5.8 °F 85% 30.28 in 10.0 mi NNW 4.6 mph - N/A   Clear
3:14 AM -4.0 °F -14.6 °F -7.6 °F 85% 30.28 in 10.0 mi NNW 4.6 mph - N/A   Clear
3:33 AM -5.8 °F -14.5 °F -9.4 °F 84% 30.29 in 10.0 mi NNW 3.5 mph - N/A   Clear
4:34 AM -5.8 °F -18.4 °F -9.4 °F 84% 30.29 in 10.0 mi NW 5.8 mph - N/A   Clear
4:54 AM -5.8 °F -18.4 °F -9.4 °F 84% 30.29 in 10.0 mi NW 5.8 mph - N/A   Clear
5:13 AM -5.8 °F -16.7 °F -9.4 °F 84% 30.30 in 10.0 mi NW 4.6 mph - N/A   Clear
5:34 AM -7.6 °F - -11.2 °F 84% 30.30 in 10.0 mi Calm Calm - N/A   Clear
5:54 AM -7.6 °F - -9.4 °F 92% 30.30 in 10.0 mi Calm Calm - N/A   Clear
6:13 AM -7.6 °F - -11.2 °F 84% 30.31 in 10.0 mi Calm Calm - N/A   Clear
6:34 AM -9.4 °F - -14.8 °F 77% 30.31 in 10.0 mi Calm Calm - N/A   Clear
6:54 AM -11.2 °F - -14.8 °F 84% 30.31 in 10.0 mi Calm Calm - N/A   Clear
7:13 AM -9.4 °F - -13.0 °F 84% 30.31 in 10.0 mi Calm Calm - N/A   Clear
7:34 AM -9.4 °F - -14.8 °F 77% 30.31 in 10.0 mi Calm Calm - N/A   Clear
7:54 AM -7.6 °F - -11.2 °F 84% 30.32 in 10.0 mi Calm Calm - N/A   Scattered Clouds
8:13 AM -7.6 °F - -11.2 °F 84% 30.32 in 10.0 mi Calm Calm - N/A   Scattered Clouds
8:34 AM -9.4 °F - -13.0 °F 84% 30.33 in 10.0 mi Calm Calm - N/A   Scattered Clouds
8:54 AM -9.4 °F - -14.8 °F 77% 30.33 in 10.0 mi Calm Calm - N/A   Scattered Clouds
9:13 AM -9.4 °F - -14.8 °F 77% 30.33 in 7.0 mi Calm Calm - N/A   Mostly Cloudy
9:34 AM -5.8 °F - -9.4 °F 84% 30.34 in 10.0 mi Calm Calm - N/A   Overcast
9:53 AM -4.0 °F - -7.6 °F 85% 30.34 in 10.0 mi Calm Calm - N/A   Overcast
10:14 AM -2.2 °F - -5.8 °F 85% 30.35 in 7.0 mi Calm Calm - N/A   Overcast
10:34 AM -0.4 °F - -4.0 °F 85% 30.35 in 1.5 mi Calm Calm - N/A Snow Light Snow
10:54 AM -0.4 °F - -4.0 °F 85% 30.35 in 5.0 mi Calm Calm - N/A Snow Light Snow
11:14 AM 1.4 °F - -2.2 °F 85% 30.35 in 5.0 mi Calm Calm - N/A   Overcast
11:54 AM 3.2 °F -4.2 °F 1.4 °F 92% 30.35 in 7.0 mi West 3.5 mph - N/A Snow Light Snow
12:14 PM 5.0 °F -6.9 °F 1.4 °F 85% 30.34 in 10.0 mi WSW 6.9 mph - N/A   Overcast
12:34 PM 6.8 °F -4.8 °F 3.2 °F 85% 30.33 in 10.0 mi SW 6.9 mph - N/A   Overcast
12:53 PM 8.6 °F -5.5 °F 5.0 °F 85% 30.32 in 10.0 mi WSW 10.4 mph - N/A   Overcast
1:14 PM 8.6 °F -5.5 °F 6.8 °F 92% 30.31 in 10.0 mi WSW 10.4 mph - N/A   Overcast
1:34 PM 10.4 °F -3.3 °F 6.8 °F 85% 30.31 in 10.0 mi WSW 10.4 mph - N/A   Overcast
1:53 PM 10.4 °F -4.1 °F 8.6 °F 92% 30.30 in 10.0 mi WSW 11.5 mph - N/A   Overcast
2:14 PM 10.4 °F -5.4 °F 8.6 °F 92% 30.30 in 10.0 mi WSW 13.8 mph - N/A   Overcast
2:34 PM 12.2 °F -3.1 °F 8.6 °F 85% 30.29 in 10.0 mi WSW 13.8 mph - N/A   Overcast
2:53 PM 12.2 °F -2.5 °F 8.6 °F 85% 30.29 in 10.0 mi WSW 12.7 mph - N/A   Overcast
3:14 PM 12.2 °F -1.0 °F 8.6 °F 85% 30.29 in 10.0 mi WSW 10.4 mph - N/A   Overcast
3:33 PM 12.2 °F -1.0 °F 8.6 °F 85% 30.29 in 10.0 mi WSW 10.4 mph - N/A   Overcast
3:54 PM 12.2 °F -1.0 °F 8.6 °F 85% 30.29 in 10.0 mi WSW 10.4 mph - N/A   Overcast
4:14 PM 12.2 °F -1.0 °F 8.6 °F 85% 30.29 in 10.0 mi WSW 10.4 mph - N/A   Overcast
4:33 PM 14.0 °F 1.2 °F 8.6 °F 79% 30.29 in 10.0 mi West 10.4 mph - N/A   Overcast
4:54 PM 12.2 °F -0.2 °F 8.6 °F 85% 30.28 in 10.0 mi WSW 9.2 mph - N/A   Overcast
5:14 PM 12.2 °F 0.7 °F 8.6 °F 85% 30.28 in 10.0 mi WSW 8.1 mph - N/A   Overcast
5:34 PM 10.4 °F -0.4 °F 6.8 °F 85% 30.28 in 10.0 mi WSW 6.9 mph - N/A   Scattered Clouds
5:54 PM 8.6 °F 0.1 °F 3.2 °F 79% 30.27 in 10.0 mi WSW 4.6 mph - N/A   Clear
6:13 PM 6.8 °F -4.8 °F 3.2 °F 85% 30.27 in 10.0 mi WSW 6.9 mph - N/A   Clear
6:34 PM 5.0 °F -6.9 °F 1.4 °F 85% 30.26 in 10.0 mi West 6.9 mph - N/A   Clear
6:54 PM 5.0 °F -2.1 °F 1.4 °F 85% 30.26 in 10.0 mi West 3.5 mph - N/A   Clear
7:13 PM 5.0 °F -2.1 °F 1.4 °F 85% 30.26 in 10.0 mi West 3.5 mph - N/A   Clear
7:34 PM 3.2 °F - -0.4 °F 85% 30.25 in 10.0 mi Calm Calm - N/A   Clear
7:54 PM 1.4 °F - -0.4 °F 92% 30.24 in 10.0 mi Calm Calm - N/A   Clear
8:13 PM 3.2 °F - -0.4 °F 85% 30.24 in 10.0 mi Calm Calm - N/A   Clear
8:34 PM -0.4 °F - -4.0 °F 85% 30.24 in 10.0 mi Calm Calm - N/A   Clear
8:54 PM -2.2 °F - -5.8 °F 85% 30.23 in 4.0 mi Calm Calm - N/A Snow Light Snow
9:13 PM -2.2 °F - -5.8 °F 85% 30.23 in 5.0 mi Calm Calm - N/A Snow Light Snow
9:34 PM -2.2 °F - -5.8 °F 85% 30.22 in 7.0 mi Calm Calm - N/A   Clear
9:54 PM -4.0 °F - -7.6 °F 85% 30.22 in 4.0 mi Calm Calm - N/A Snow Light Snow
10:13 PM -5.8 °F - -9.4 °F 84% 30.21 in 5.0 mi Calm Calm - N/A   Clear
10:34 PM -4.0 °F - -7.6 °F 85% 30.21 in 4.0 mi Calm Calm - N/A Snow Light Snow
10:53 PM -2.2 °F - -7.6 °F 78% 30.20 in 7.0 mi Calm Calm - N/A   Clear
11:14 PM -7.6 °F - -11.2 °F 84% 30.19 in 7.0 mi Calm Calm - N/A   Clear
11:34 PM -7.6 °F - -11.2 °F 84% 30.19 in 7.0 mi Calm Calm - N/A Snow Light Snow
11:53 PM -5.8 °F -16.7 °F -9.4 °F 84% 30.19 in 10.0 mi SE 4.6 mph - N/A   Clear